Voltar ao catálogo

DELTA 1 DEB

AtivoUNKNOWN
NORAD 7055·DEBRIS·🇺🇸 United States

Lançado Nov 6, 1973 de Vandenberg Space Force Base

Loading…

Próximas Passagens (próximas 24 horas)

TLE

AtualizadoSource: Space-Track

Época: Sep 14, 2026, 09:51 UTC

1 07055U 73086AX  26257.41068554  .00000035  00000-0  95986-3 0  9994
2 07055 102.6633 327.9110 0344704  28.2988  31.3518 11.84226988284264

Acompanhe DELTA 1 DEB em tempo real com AllMySat

Download on the App Store